Overview Statistics Trail Chart Weather Telemetry Raw packets
 

This is the latest recevied weather packets stored in our database for station/object WC4PEM-9. If no packets are shown the sender has not sent any weather packets the latest 10 day(s).

<< 148 149 150 151 152 153 154 >>
Time Temp. Humidity Pressure Rain* Wind** Luminosity Snow
1787810536 22.78° C 96% 1015.6 hPa 0 mm - - -
1787810236 22.78° C 96% 1015.8 hPa 0 mm - - -
1787810002 22.78° C 96% 1015.8 hPa 0.25 mm - - -
1787809936 22.78° C 96% 1015.8 hPa 0.25 mm - - -
1787809636 22.78° C 96% 1015.8 hPa 0.25 mm - - -
1787809336 22.78° C 96% 1015.8 hPa 0.25 mm - - -
1787809036 22.78° C 96% 1015.8 hPa 0.51 mm - - -
1787808736 22.78° C 96% 1015.8 hPa 0.51 mm - - -
1787808436 22.78° C 96% 1015.8 hPa 0.76 mm - - -
1787808136 22.78° C 96% 1015.9 hPa 0.76 mm - - -
1787807836 22.78° C 96% 1015.7 hPa 1.02 mm - - -
1787807623 22.78° C 96% 1016 hPa 1.27 mm - - -
1787807536 22.78° C 96% 1016 hPa 1.27 mm - - -
1787807236 22.78° C 96% 1016.1 hPa 1.27 mm - - -
1787806936 22.78° C 96% 1016.1 hPa 1.52 mm - - -
1787806636 22.78° C 96% 1016.1 hPa 1.52 mm - - -
1787806336 22.78° C 96% 1016.1 hPa 1.52 mm - - -
1787806036 22.78° C 96% 1016 hPa 1.78 mm - - -
1787805736 22.78° C 96% 1016.2 hPa 2.03 mm - - -
1787805436 22.78° C 96% 1016.3 hPa 1.78 mm - - -
1787805136 22.78° C 96% 1016.2 hPa 2.03 mm - - -
1787804836 22.78° C 96% 1016.3 hPa 2.03 mm - - -
1787804651 22.78° C 96% 1016.3 hPa 2.29 mm - - -
1787804536 22.78° C 96% 1016.3 hPa 2.29 mm - - -
1787804236 22.78° C 96% 1016.4 hPa 2.29 mm - - -

* Rain latest hour (hover to see other rain measurements)
** Current wind speed in m/s (hover to see current wind gust speed)